Location: Beeston
(52.7000°N, 0.8167°E)
Time: 05:48:00
(UTC+00:00)

Cosmos 1092 Rocket - Pass Details

Date: 15 May 2026
Orbit: 953 x 994 km, 83.0° (Epoch: 6 June)

Event Time Altitude Azimuth Distance (km) Brightness Sun altitude
Rises 21:32:13 0° 351° (N) 3,648 8.3 -12.0°
Reaches altitude 10° 21:34:48 10° 357° (N) 2,701 7.3 -12.3°
Maximum altitude 21:40:48 51° 73° (ENE) 1,202 4.4 -12.7°
Enters shadow 21:45:21 18° 143° (SE) 2,196 5.2 -13.1°
